• în România
  • Lista ţărilor
  • Pe 7 zile
  • Temperatura apei
  • Hartă satelitară
  • Meteo pe hartă
  • Widget-uri
  • user-avatar
    Intrare

    Meteo pe oră la Krasnopole

    Astăzi, 26 Septembrie, Miercuri

    Timp Temperatura Precipitaţii Vânt Presiune Umiditate
    00:00 +6°C° 0 mm 4 m/s 745 mmHg 77%
    01:00 +5°C° 0 mm 4 m/s 746 mmHg 79%
    02:00 +5°C° 0 mm 4 m/s 746 mmHg 81%
    03:00 +4°C° 0 mm 4 m/s 747 mmHg 83%
    04:00 +4°C° 0 mm 4 m/s 748 mmHg 85%
    05:00 +3°C° 0 mm 4 m/s 748 mmHg 86%
    06:00 +3°C° 0 mm 4 m/s 749 mmHg 88%
    07:00 +4°C° 0 mm 4 m/s 749 mmHg 84%
    08:00 +4°C° 0 mm 4 m/s 750 mmHg 80%
    09:00 +5°C° 0 mm 4 m/s 750 mmHg 76%
    10:00 +6°C° 0 mm 4 m/s 751 mmHg 70%
    11:00 +7°C° 0 mm 4 m/s 751 mmHg 64%
    12:00 +8°C° 0 mm 5 m/s 751 mmHg 57%
    13:00 +9°C° 0 mm 5 m/s 751 mmHg 55%
    14:00 +9°C° 0 mm 5 m/s 751 mmHg 53%
    15:00 +10°C° 0 mm 5 m/s 751 mmHg 51%
    16:00 +10°C° 0 mm 4 m/s 751 mmHg 55%
    17:00 +8°C° 0 mm 4 m/s 751 mmHg 59%
    18:00 +8°C° 0 mm 3 m/s 751 mmHg 62%
    19:00 +6°C° 0 mm 4 m/s 751 mmHg 64%
    20:00 +6°C° 0 mm 4 m/s 750 mmHg 65%
    21:00 +5°C° 0 mm 4 m/s 750 mmHg 67%
    22:00 +5°C° 0 mm 5 m/s 750 mmHg 67%
    23:00 +5°C° 0 mm 6 m/s 749 mmHg 67%

    Mâine, 27 Septembrie, Joi

    Timp Temperatura Precipitaţii Vânt Presiune Umiditate
    00:00 +5°C° 0 mm 6 m/s 748 mmHg 67%
    01:00 +5°C° 0 mm 7 m/s 747 mmHg 65%
    02:00 +5°C° 0 mm 8 m/s 747 mmHg 63%
    03:00 +5°C° 0 mm 8 m/s 746 mmHg 61%
    04:00 +5°C° 0.6 mm 9 m/s 745 mmHg 64%
    05:00 +5°C° 0.6 mm 10 m/s 743 mmHg 68%
    06:00 +3°C° 0.6 mm 11 m/s 742 mmHg 71%
    07:00 +3°C° 0.5 mm 11 m/s 742 mmHg 74%
    08:00 +4°C° 0.5 mm 11 m/s 741 mmHg 77%
    09:00 +4°C° 0.5 mm 11 m/s 740 mmHg 80%
    10:00 +4°C° 0.4 mm 11 m/s 740 mmHg 81%
    11:00 +6°C° 0.4 mm 10 m/s 740 mmHg 82%
    12:00 +6°C° 0.4 mm 10 m/s 740 mmHg 83%
    13:00 +7°C° 0.1 mm 10 m/s 740 mmHg 81%
    14:00 +8°C° 0.1 mm 9 m/s 740 mmHg 78%
    15:00 +8°C° 0.1 mm 9 m/s 740 mmHg 75%
    16:00 +9°C° 0 mm 8 m/s 740 mmHg 74%
    17:00 +9°C° 0 mm 7 m/s 741 mmHg 73%
    18:00 +9°C° 0 mm 5 m/s 741 mmHg 73%
    19:00 +8°C° 0 mm 5 m/s 741 mmHg 76%
    20:00 +8°C° 0 mm 5 m/s 742 mmHg 78%
    21:00 +7°C° 0 mm 5 m/s 742 mmHg 81%
    22:00 +7°C° 0 mm 5 m/s 742 mmHg 81%
    23:00 +7°C° 0 mm 5 m/s 742 mmHg 82%

    Poimâine, 28 Septembrie, Vineri

    Timp Temperatura Precipitaţii Vânt Presiune Umiditate
    00:00 +6°C° 0 mm 5 m/s 743 mmHg 82%
    01:00 +6°C° 0 mm 5 m/s 742 mmHg 84%
    02:00 +6°C° 0 mm 5 m/s 742 mmHg 87%
    03:00 +6°C° 0 mm 5 m/s 742 mmHg 89%
    04:00 +5°C° 0 mm 6 m/s 742 mmHg 88%
    05:00 +5°C° 0 mm 6 m/s 741 mmHg 86%
    06:00 +6°C° 0 mm 7 m/s 741 mmHg 85%
    07:00 +7°C° 0 mm 8 m/s 740 mmHg 83%
    08:00 +8°C° 0 mm 9 m/s 740 mmHg 81%
    09:00 +9°C° 0 mm 10 m/s 739 mmHg 80%
    10:00 +9°C° 0.1 mm 10 m/s 739 mmHg 80%
    11:00 +9°C° 0.1 mm 10 m/s 739 mmHg 81%
    12:00 +11°C° 0.1 mm 10 m/s 738 mmHg 82%
    13:00 +11°C° 0 mm 10 m/s 738 mmHg 81%
    14:00 +12°C° 0 mm 10 m/s 738 mmHg 80%
    15:00 +12°C° 0 mm 10 m/s 737 mmHg 80%
    16:00 +12°C° 0.5 mm 9 m/s 738 mmHg 81%
    17:00 +12°C° 0.5 mm 9 m/s 738 mmHg 83%
    18:00 +12°C° 0.5 mm 8 m/s 738 mmHg 85%
    19:00 +11°C° 0.2 mm 7 m/s 739 mmHg 84%
    20:00 +9°C° 0.2 mm 6 m/s 740 mmHg 83%
    21:00 +8°C° 0.2 mm 5 m/s 741 mmHg 82%
    22:00 +7°C° 0 mm 4 m/s 742 mmHg 84%
    23:00 +7°C° 0 mm 3 m/s 743 mmHg 85%

    29 Septembrie, Sâmbătă

    Timp Temperatura Precipitaţii Vânt Presiune Umiditate
    00:00 +6°C° 0 mm 2 m/s 744 mmHg 87%
    01:00 +5°C° 0 mm 2 m/s 744 mmHg 87%
    02:00 +5°C° 0 mm 2 m/s 745 mmHg 88%
    03:00 +4°C° 0 mm 2 m/s 745 mmHg 88%
    04:00 +4°C° 0 mm 2 m/s 746 mmHg 88%
    05:00 +4°C° 0 mm 2 m/s 746 mmHg 88%
    06:00 +4°C° 0 mm 2 m/s 746 mmHg 88%
    07:00 +5°C° 0 mm 2 m/s 747 mmHg 84%
    08:00 +6°C° 0 mm 2 m/s 747 mmHg 80%
    09:00 +7°C° 0 mm 2 m/s 748 mmHg 76%
    10:00 +8°C° 0 mm 2 m/s 748 mmHg 70%
    11:00 +9°C° 0 mm 2 m/s 748 mmHg 65%
    12:00 +12°C° 0 mm 2 m/s 748 mmHg 60%
    13:00 +12°C° 0 mm 2 m/s 748 mmHg 58%
    14:00 +12°C° 0 mm 2 m/s 748 mmHg 56%
    15:00 +12°C° 0 mm 2 m/s 748 mmHg 55%
    16:00 +12°C° 0 mm 2 m/s 749 mmHg 58%
    17:00 +11°C° 0 mm 1 m/s 749 mmHg 62%
    18:00 +10°C° 0 mm 1 m/s 749 mmHg 66%
    19:00 +10°C° 0 mm 1 m/s 749 mmHg 67%
    20:00 +9°C° 0 mm 1 m/s 750 mmHg 67%
    21:00 +9°C° 0 mm 1 m/s 750 mmHg 68%
    22:00 +9°C° 0 mm 1 m/s 750 mmHg 69%
    23:00 +8°C° 0 mm 1 m/s 751 mmHg 69%

    30 Septembrie, Duminică

    Timp Temperatura Precipitaţii Vânt Presiune Umiditate
    00:00 +8°C° 0 mm 1 m/s 751 mmHg 69%
    01:00 +7°C° 0 mm 1 m/s 751 mmHg 69%
    02:00 +6°C° 0 mm 1 m/s 751 mmHg 70%
    03:00 +6°C° 0 mm 1 m/s 752 mmHg 70%
    04:00 +6°C° 0 mm 1 m/s 752 mmHg 69%
    05:00 +5°C° 0 mm 1 m/s 752 mmHg 68%
    06:00 +5°C° 0 mm 1 m/s 752 mmHg 67%
    07:00 +6°C° 0 mm 1 m/s 753 mmHg 64%
    08:00 +7°C° 0 mm 1 m/s 753 mmHg 61%
    09:00 +8°C° 0 mm 1 m/s 753 mmHg 58%
    10:00 +9°C° 0 mm 1 m/s 753 mmHg 55%
    11:00 +10°C° 0 mm 1 m/s 753 mmHg 52%
    12:00 +11°C° 0 mm 1 m/s 753 mmHg 49%
    13:00 +12°C° 0 mm 2 m/s 753 mmHg 49%
    14:00 +12°C° 0 mm 2 m/s 752 mmHg 48%
    15:00 +13°C° 0 mm 2 m/s 752 mmHg 47%
    16:00 +12°C° 0 mm 2 m/s 752 mmHg 52%
    17:00 +11°C° 0 mm 1 m/s 752 mmHg 57%
    18:00 +10°C° 0 mm 1 m/s 752 mmHg 61%
    19:00 +9°C° 0 mm 1 m/s 752 mmHg 64%
    20:00 +9°C° 0 mm 1 m/s 752 mmHg 66%
    21:00 +8°C° 0 mm 1 m/s 752 mmHg 68%
    22:00 +7°C° 0 mm 2 m/s 752 mmHg 71%
    23:00 +6°C° 0 mm 2 m/s 752 mmHg 73%

    1 Octombrie, Luni

    Timp Temperatura Precipitaţii Vânt Presiune Umiditate
    00:00 +6°C° 0 mm 2 m/s 752 mmHg 75%
    01:00 +6°C° 0 mm 2 m/s 752 mmHg 77%
    02:00 +6°C° 0 mm 2 m/s 751 mmHg 79%
    03:00 +5°C° 0 mm 2 m/s 751 mmHg 81%
    04:00 +5°C° 0 mm 2 m/s 751 mmHg 82%
    05:00 +5°C° 0 mm 2 m/s 751 mmHg 82%
    06:00 +4°C° 0 mm 2 m/s 751 mmHg 83%
    07:00 +6°C° 0 mm 2 m/s 751 mmHg 78%
    08:00 +7°C° 0 mm 3 m/s 751 mmHg 73%
    09:00 +8°C° 0 mm 3 m/s 751 mmHg 68%
    10:00 +9°C° 0 mm 3 m/s 751 mmHg 63%
    11:00 +11°C° 0 mm 4 m/s 751 mmHg 57%
    12:00 +12°C° 0 mm 4 m/s 751 mmHg 52%
    13:00 +12°C° 0 mm 4 m/s 750 mmHg 51%
    14:00 +13°C° 0 mm 4 m/s 750 mmHg 50%
    15:00 +13°C° 0 mm 4 m/s 750 mmHg 49%
    16:00 +12°C° 0 mm 3 m/s 750 mmHg 54%
    17:00 +11°C° 0 mm 3 m/s 749 mmHg 59%
    18:00 +10°C° 0 mm 2 m/s 749 mmHg 64%
    19:00 +9°C° 0 mm 2 m/s 749 mmHg 65%
    20:00 +8°C° 0 mm 2 m/s 749 mmHg 67%
    21:00 +9°C° 0 mm 1 m/s 750 mmHg 68%
    22:00 +8°C° 0 mm 2 m/s 750 mmHg 69%
    23:00 +7°C° 0 mm 2 m/s 750 mmHg 70%
    Arată mai mult